Flag for U.S.A. Weather past 2 weeks in Coeur d'Alene, Idaho, U.S.A.

Now
52 °F

Sunny.


Feels Like: 47 °F
Forecast: 37 / 59 °F
Wind: 15 mph from South

Location: Coeur d'Alene Weather Reporting System

Current Time: Mar 28, 2015 at 8:15:18 PM

Latest Report: Mar 28, 2015 at 7:35 PM


Visibility: 10 mi

Pressure: 30.24 "Hg

Humidity: 50%

Dew point: 34 °F

Location of Coeur d'AleneLocation

Historic Weather in Coeur d'Alene — Graph

°F

Coeur d'Alene temperature yesterday

Maximum temperature yesterday: 72 °F (at 3:55 PM)
Minimum temperature yesterday: 39 °F (at 1:35 AM)
Average temperature yesterday: 53 °F

Past Weeks' High & Low Weather Summary

 TemperatureHumidityPressure
High72 °F (Mar 27, 3:55 PM)100% (Mar 27, 7:55 AM)30.33 "Hg (Mar 27, 7:55 AM)
Low30 °F (Mar 22, 4:55 AM)38% (Mar 22, 3:35 PM)29.77 "Hg (Mar 15, 5:55 PM)
Average46 °F75%30.06 "Hg
* Reported Mar 13 7:15 PM — Mar 28 7:15 PM, Coeur d'Alene, Weather by CustomWeather, © 2015

Note: Actual official high and low records may vary slightly from our data, if they occured in-between our weather recording intervals... More about our weather records

Advertising

Coeur d'Alene weather history for previous 24 hours

 ConditionsComfort  
Time TempWeatherWind HumidityBarometerVisibility
7:15 PM
Sat, Mar 28
50 °FSunny.9 mph54%30.24 "Hg10 mi
6:55 PM52 °FSunny.10 mph50%30.22 "Hg10 mi
6:35 PM52 °FSunny.15 mph62%30.21 "Hg10 mi
6:15 PM54 °FPassing clouds.21 mph47%30.21 "Hg10 mi
5:55 PM54 °FPartly sunny.20 mph47%30.20 "Hg10 mi
5:35 PM54 °FPartly sunny.24 mph47%30.20 "Hg10 mi
5:15 PM54 °FBroken clouds.17 mph47%30.20 "Hg10 mi
4:55 PM54 °FPassing clouds.26 mph47%30.20 "Hg10 mi
4:35 PM54 °FPassing clouds.23 mph47%30.19 "Hg10 mi
4:15 PM54 °FScattered clouds.20 mph51%30.19 "Hg10 mi
3:55 PM55 °FPartly sunny.23 mph44%30.18 "Hg10 mi
3:35 PM55 °FMostly cloudy.22 mph47%30.17 "Hg10 mi
3:15 PM55 °FMostly cloudy.23 mph47%30.16 "Hg10 mi
2:55 PM54 °FMostly cloudy.18 mph54%30.15 "Hg10 mi
2:35 PM54 °FOvercast.20 mph51%30.14 "Hg10 mi
1:55 PM55 °FMore clouds than sun.24 mph51%30.12 "Hg10 mi
1:35 PM55 °FMostly cloudy.26 mph51%30.11 "Hg10 mi
1:15 PM54 °FMostly cloudy.23 mph54%30.11 "Hg10 mi
12:55 PM55 °FPartly sunny.29 mph55%30.10 "Hg10 mi
12:35 PM54 °FMostly cloudy.25 mph54%30.10 "Hg10 mi
12:15 PM54 °FBroken clouds.30 mph54%30.10 "Hg10 mi
11:55 AM54 °FScattered clouds.28 mph58%30.10 "Hg10 mi
11:35 AM52 °FPassing clouds.26 mph62%30.09 "Hg10 mi
11:15 AM50 °FPassing clouds.29 mph62%30.07 "Hg10 mi
10:55 AM50 °FPassing clouds.25 mph67%30.06 "Hg10 mi
10:35 AM48 °FScattered clouds.25 mph71%30.06 "Hg10 mi
10:15 AM48 °FPartly sunny.29 mph66%30.06 "Hg10 mi
9:55 AM46 °FMostly cloudy.28 mph66%30.05 "Hg10 mi
9:35 AM46 °FMostly cloudy.25 mph66%30.05 "Hg10 mi
9:15 AM46 °FOvercast.26 mph66%30.04 "Hg10 mi
8:55 AM45 °FBroken clouds.18 mph66%30.04 "Hg10 mi
8:35 AM46 °FPartly sunny.24 mph66%30.04 "Hg10 mi
8:15 AM45 °FPartly sunny.25 mph71%30.02 "Hg10 mi
7:55 AM45 °FPassing clouds.21 mph71%30.02 "Hg10 mi
7:35 AM45 °FPartly sunny.23 mph71%30.00 "Hg10 mi
7:15 AM45 °FMostly cloudy.21 mph71%29.99 "Hg10 mi
6:55 AM46 °FMostly cloudy.23 mph66%29.98 "Hg10 mi
6:35 AM46 °FPartly cloudy.21 mph66%29.97 "Hg10 mi
6:15 AM46 °FPassing clouds.21 mph71%29.95 "Hg10 mi
5:55 AM48 °FPassing clouds.20 mph71%29.94 "Hg10 mi
5:35 AM48 °FPartly cloudy.13 mph82%29.92 "Hg10 mi
5:15 AM48 °FPassing clouds.16 mph82%29.90 "Hg10 mi
4:55 AM48 °FPartly cloudy.12 mph82%29.90 "Hg10 mi
4:35 AM48 °FOvercast.8 mph87%29.90 "Hg10 mi
4:15 AM48 °FMostly cloudy.10 mph87%29.88 "Hg10 mi
3:55 AM48 °FOvercast.13 mph87%29.88 "Hg10 mi
3:35 AM48 °FMostly cloudy.13 mph87%29.87 "Hg10 mi
3:15 AM50 °FMostly cloudy.14 mph82%29.88 "Hg10 mi
2:55 AM50 °FMostly cloudy.12 mph88%29.88 "Hg9 mi
2:35 AM50 °FMostly cloudy.10 mph88%29.88 "Hg10 mi
2:15 AM52 °FMostly cloudy.14 mph82%29.90 "Hg9 mi
1:55 AM52 °FPartly cloudy.14 mph82%29.86 "Hg10 mi
1:35 AM54 °FMostly cloudy.26 mph82%29.87 "Hg9 mi
1:15 AM54 °FMostly cloudy.8 mph82%29.85 "Hg10 mi
12:55 AM54 °FMostly cloudy.14 mph82%29.85 "Hg10 mi
12:35 AM54 °FOvercast.12 mph82%29.84 "Hg10 mi
12:15 AM52 °FOvercast.6 mph88%29.85 "Hg10 mi
11:55 PM
Fri, Mar 27
54 °FMostly cloudy.8 mph77%29.86 "Hg10 mi
11:35 PM54 °FOvercast.8 mph77%29.84 "Hg10 mi
11:15 PM54 °FPassing clouds.No wind82%29.83 "Hg10 mi
10:55 PM52 °FPassing clouds.No wind82%29.84 "Hg9 mi
10:35 PM52 °FPassing clouds.No wind77%29.84 "Hg10 mi
10:15 PM52 °FPassing clouds.No wind77%29.85 "Hg10 mi
9:55 PM54 °FClear.No wind77%29.86 "Hg10 mi
9:35 PM57 °FClear.8 mph67%29.86 "Hg10 mi
8:35 PM59 °FClear.7 mph63%29.88 "Hg10 mi
8:15 PM61 °FClear.5 mph59%29.88 "Hg10 mi
Weather by CustomWeather, © 2015

See weather overviewHow to use our weather pages